COSMOS 832

Satellite information

Favourite Embed

Satellite Type and Status

PAYLOADIN ORBIT

Key statistics

Satellite COSMOS 832 at a glance.

Uptime

18036

Days in orbit

Revolutions

≈ 12.4

Per day

Orbit

LEO

Low Earth Orbit

Inclination

74.0

Latest

Satellite identification and parameters

Extended collection of information and parameters for COSMOS 832.

Object identification

Identified? True

Debris? False

Object name: COSMOS 832

International designator: 1976-054H

Object number (NORAD): 8896

Object ID (CCSDS): 8896

Country: COMMONWEALTH OF INDEPENDENT STATES (CIS)

Current information (Y/N): Y

RCS size: MEDIUM

Orbital parameters

Period: 116.006 minutes

Inclination: 73.9994 deg

SMA: 7879.155 km

Apoapsis: 1520.922 km

Periapsis: 1481.118 km

RAAN: 254.8085 deg

Eccentricy: 0.0025259

Argument of periapsis: 268.0549 deg

Mean anomaly: 117.3551 deg

Mean motion: 12.41318672 rev/day

Mean motion (dot): -0.00000012 rev/day2

B* drag term: 0.00002987 1/REarth

Two-line elements (TLE)

Creation date: Oct. 31, 2025, 10:56 p.m.

Reference frame: TEME

Reference center: EARTH

Epoch: Oct. 31, 2025, 7:53 p.m. UTC

TLE line 0: 0 COSMOS 832

TLE line 1: 1 8896U 76054H 25304.82914038 -.00000012 00000-0 29870-4 0 9996

TLE line 2: 2 8896 73.9994 254.8085 0025259 268.0549 117.3551 12.41318672237564

Live tracking on map

Real-time ground track for satellite COSMOS 832.

In-orbit conjunctions

There are no conjunctions computed for COSMOS 832, at the moment. Check back to stay up to date, as we update our databases every day.

Go to all conjunctions

Associated space launch

Military communications satellites

COSMOS 832 was lifted into orbit during the mission ‘Kosmos-3M | Strela-1M 113-120’, on board a Kosmos-3M space rocket.

The launch took place on June 15, 1976, 1:19 p.m. from 132/2.

For more information about the launch, click the button.

Launch to space Kosmos-3M | Strela-1M 113-120
Kosmos-3M | Strela-1M 113-120

Agency: N/A

Status: Launch Successful

Launch date: June 15, 1976, 1:19 p.m. UTC

Rocket: Kosmos-3M

Launch pad: 132/2

Location: Plesetsk Cosmodrome, Russian Federation

...

Latest news about this satellite

There are no fresh news available about this satellite. Check back as we update our databases every day.


Newsletter sign-up

Weekly statistics, charts and insights to help you stay on top of the space industry.